Location: Newark
(35.6799°N, 139.7636°E)
Time: 19:20:48
(UTC+00:00)

Courier 1B - Pass Details

Date: 14 December 2019
Orbit: 962 x 1209 km, 28.3° (Epoch: 28 January)

Event Time Altitude Azimuth Distance (km) Brightness Sun altitude
Rises 09:19:20 0° 224° (SW) 3,734 11.5 -21.8°
Reaches altitude 10° 09:22:24 10° 212° (SSW) 2,822 10.5 -22.4°
Maximum altitude 09:27:59 26° 158° (SSE) 1,945 8.9 -23.5°
Enters shadow 09:29:49 24° 135° (SE) 2,083 8.9 -23.9°
